Date,TemperatureHighF,TemperatureAvgF,TemperatureLowF,DewpointHighF,DewpointAvgF,DewpointLowF,HumidityHigh,HumidityAvg,HumidityLow,PressureMaxIn,PressureMinIn,WindSpeedMaxMPH,WindSpeedAvgMPH,GustSpeedMaxMPH,PrecipitationSumIn
2013-10-1,83,64,50,71,55,31,100,82,19,30.37,30.26,1,0,4,0.01
2013-10-2,84,66,52,74,59,42,100,85,24,30.38,30.28,0,0,2,0.00
2013-10-3,85,68,57,76,60,35,100,83,21,30.37,30.28,1,0,2,0.00
2013-10-4,87,68,57,76,62,34,100,85,20,30.38,30.28,1,0,4,0.00
2013-10-5,87,70,57,78,63,41,99,83,20,30.36,30.24,0,0,1,0.00
2013-10-6,84,69,58,77,65,56,100,88,42,30.29,30.13,0,0,3,0.00
2013-10-7,78,72,64,78,72,63,99,99,99,30.19,30.05,1,0,3,0.00
2013-10-8,63,60,56,63,56,50,100,89,67,30.40,30.19,2,0,6,0.00
2013-10-9,75,62,52,61,50,28,100,71,21,30.42,30.32,3,0,8,0.00
2013-10-10,72,65,52,67,60,51,100,87,57,30.33,30.20,1,0,4,0.00
2013-10-11,82,69,62,70,58,30,100,77,16,30.22,30.13,2,0,4,0.00
2013-10-12,77,66,56,71,64,56,100,92,54,30.30,30.19,2,0,3,0.00
2013-10-13,72,67,64,70,66,64,100,98,87,30.40,30.29,1,0,4,0.00
2013-10-14,68,64,62,67,64,61,99,99,99,30.44,30.36,2,0,4,0.00
2013-10-15,77,65,56,63,51,14,100,75,10,30.40,30.26,2,0,4,0.00
2013-10-16,77,62,50,70,56,48,99,84,40,30.30,30.17,1,0,2,0.00
2013-10-17,75,65,59,72,64,58,100,96,79,30.20,30.10,1,0,4,0.00
2013-10-18,69,64,59,66,63,59,100,95,75,30.25,30.12,1,0,3,0.00
2013-10-19,71,63,57,70,61,56,100,94,68,30.19,30.07,2,0,4,0.00
2013-10-20,71,55,46,55,39,8,100,70,10,30.32,30.14,2,0,4,0.01
2013-10-21,75,54,39,59,43,12,100,77,10,30.37,30.24,2,0,4,0.01
2013-10-22,66,59,53,65,58,53,99,99,99,30.26,30.05,0,0,2,0.00
2013-10-23,73,59,47,59,32,-3,100,54,10,30.25,29.96,2,0,7,0.00
2013-10-24,63,47,32,49,26,-1,100,61,10,30.42,30.26,2,0,4,0.01
2013-10-25,60,48,38,48,25,-4,100,58,10,30.56,30.38,2,0,4,0.00
2013-10-26,64,43,27,42,20,-2,100,60,10,30.59,30.34,2,0,7,0.01
2013-10-27,75,50,34,51,33,8,100,69,10,30.36,30.27,2,0,4,0.01
2013-10-28,67,54,44,64,53,44,100,97,74,30.48,30.34,2,0,5,0.00
2013-10-29,78,58,45,66,48,15,100,79,10,30.56,30.45,2,0,4,0.01
2013-10-30,78,62,48,65,48,20,100,74,13,30.53,30.38,2,0,4,0.01
2013-10-31,73,62,51,69,57,48,100,85,41,30.41,30.17,1,0,3,0.00